Location: Newark
(54.8972°N, 99.8189°W)
Time: 10:03:10
(UTC+00:00)

Transit 2A - Pass Details

Date: 16 November 2019
Orbit: 602 x 957 km, 66.7° (Epoch: 14 December)

Event Time Altitude Azimuth Distance (km) Brightness Sun altitude
Rises 23:46:49 0° 296° (WNW) 2,974 9.8 -10.2°
Reaches altitude 10° 23:49:49 10° 316° (NW) 2,017 8.6 -10.6°
Maximum altitude 23:52:56 18° 360° (N) 1,521 7.4 -11.0°
Enters shadow 23:55:37 11° 40° (NE) 1,867 7.5 -11.4°
